Showing default

QIANFAN-171, 69388

Orbit data source: Space-Track

QIANFAN-171, 69388 is a Chinese payload satellite in LEO that was launched on Thu, 04 Jun 2026 UTC via a CHANG ZHENG 6A launch vehicle from the Taiyaun Space Center, China (TSC). Payload-class satellites include a variety of spacecraft equipped with specific instruments for various scientific and technological missions. These include communications satellites like Starlink; space stations such as the ISS; scientific satellites like the Hubble; Earth observation satellites from companies like Planet Labs, Umbra, and HawkEye 360; GPS; miniature CubeSats for education and research; and military/defense satellites.

Loading next visibility...
Identifier
69388, 2026-124G
Orbit
LEO
Country
Flag of CNCN / PRC
Related business
Manufacturer
GESIH
Mission
Operational spacecraft
Bus & Motor
QIANFAN, Unknown motor
Mass
267 kg wet, ~267 kg dry
Launch date (UTC)
2026-06-04 (2 weeks ago)
Launch vehicle
CHANG ZHENG 6A
Launch site
Taiyaun Space Center, China (TSC)
Object type
Payload
Rocket body
Debris
Shape & HBR
Unknown
Radar Cross Section
Large (>1 m²)

Expand to show TLE details & history
Last TLE update: 10 hours ago

TLE from 10 hours ago
0 QIANFAN-171
1 69388U 26124G   26171.41171138  .00000371  00000-0  16761-3 0  9997
2 69388  88.9984   1.6688 0002320 168.1742 191.9503 14.20068413  2275
Epoch: 2026-06-20T09:52Z
TLE epoch observation values (Epoch: 2026-06-20T09:52:51.863Z)
Latitude
-0.00001°
Longitude
-55.17401°
Altitude
829.81 km
Speed
7.437 km/s
True Right ascension
00h 06m 40s
True Declination
0° 00' 00"
Sunlit
Object was in daylight at epoch
Visualization orbit readout
Latitude
Unknown
Longitude
Unknown
Altitude
Unknown
Speed
Unknown
Apparent Right ascension
Unknown
Apparent Declination
Unknown
Sunlit
N/A
Visualization observer readout
Local Sidereal Time
07:13:24
Azimuth
Unknown
Elevation
Unknown
Doppler factor
Unknown
Orbital elements
Apogee altitude
823.743 km
Perigee altitude
820.402 km
Semi-major axis
7,200.21 km
Eccentricity
0.00023
Inclination
88.9984°
RAAN
1.6688°
Arg. of periapsis
168.1742°
True anomaly
191.9448°
Mean anomaly
191.9503°
Eccentric anomaly
191.94755°
Mean motion
3.55243 °/min
Orbital period
101.34 mins
BSTAR
0.00016761
Loading maneuver chart data...
Computing Atmospheric mass density...
Loading historical data...
Loading historical data...
Loading historical data...
Loading historical data...
Loading historical data...
Loading historical data...
Loading historical data...

Documentation

Showing up to 5 results
|